,,Stat5,,Stat1,,Stat2,,Stat3,,Stat4,,Wind1,,Wind1,
time,status,PA1M_AVG,status,PR1M_SUM,status,RH1M_AVG,status,SR1M_AVG,status,TA1M_AVG,status,W1dAve1m,status,W1sAve1m,
2001-10-02, 00:00:00,VALID,919.025,VALID,0,VALID,98.0712,VALID,0,VALID,19.4085,VALID,77,VALID,0.157072,
2001-10-02, 00:01:00,VALID,919.025,VALID,0,VALID,98.0801,VALID,-0.0169808,VALID,19.4122,VALID,77,VALID,0.0569853,
2001-10-02, 00:02:00,VALID,919.037,VALID,0,VALID,98.0928,VALID,0.0169808,VALID,19.4192,VALID,77,VALID,0,
2001-10-02, 00:03:00,VALID,919.038,VALID,0,VALID,98.0878,VALID,-0.0169808,VALID,19.4021,VALID,77,VALID,0,
2001-10-02, 00:04:00,VALID,919.038,VALID,0,VALID,98.1437,VALID,0,VALID,19.4224,VALID,77,VALID,0.0259046,
2001-10-02, 00:05:00,VALID,919.019,VALID,0,VALID,98.1361,VALID,0,VALID,19.412,VALID,77,VALID,0.158573,
2001-10-02, 00:06:00,VALID,919.006,VALID,0,VALID,98.2467,VALID,-0.0169808,VALID,19.4483,VALID,77,VALID,0.263477,
2001-10-02, 00:07:00,VALID,918.982,VALID,0,VALID,98.3929,VALID,0,VALID,19.4803,VALID,80,VALID,0.410362,
2001-10-02, 00:08:00,VALID,918.969,VALID,0,VALID,98.3828,VALID,0,VALID,19.5161,VALID,91,VALID,0.393555,
2001-10-02, 00:09:00,VALID,918.976,VALID,0,VALID,98.3192,VALID,-0.0169808,VALID,19.5322,VALID,99,VALID,0.276953,
2001-10-02, 00:10:00,VALID,918.966,VALID,0,VALID,98.2505,VALID,-0.0339617,VALID,19.5479,VALID,99,VALID,0.204928,
2001-10-02, 00:11:00,VALID,918.932,VALID,0,VALID,98.1831,VALID,0,VALID,19.5472,VALID,99,VALID,0.104852,
2001-10-02, 00:12:00,VALID,918.929,VALID,0,VALID,98.1157,VALID,0,VALID,19.571,VALID,99,VALID,0,
2001-10-02, 00:13:00,VALID,918.906,VALID,0,VALID,98.0242,VALID,0,VALID,19.5802,VALID,99,VALID,0,
2001-10-02, 00:14:00,VALID,918.899,VALID,0,VALID,97.9275,VALID,0,VALID,19.5864,VALID,99,VALID,0,
2001-10-02, 00:15:00,VALID,918.887,VALID,0,VALID,97.7953,VALID,0.0169808,VALID,19.5834,VALID,99,VALID,0,
2001-10-02, 00:16:00,VALID,918.884,VALID,0,VALID,97.6071,VALID,0,VALID,19.5576,VALID,99,VALID,0,
2001-10-02, 00:17:00,VALID,918.885,VALID,0,VALID,97.457,VALID,0,VALID,19.5285,VALID,90,VALID,0.204492,
2001-10-02, 00:18:00,VALID,918.883,VALID,0,VALID,97.4024,VALID,-0.0339617,VALID,19.5027,VALID,77,VALID,0.530048,
2001-10-02, 00:19:00,VALID,918.854,VALID,0,VALID,97.293,VALID,0,VALID,19.4868,VALID,69,VALID,0.318257,
2001-10-02, 00:20:00,VALID,918.856,VALID,0,VALID,97.2383,VALID,0,VALID,19.4443,VALID,69,VALID,0.55625,
2001-10-02, 00:21:00,VALID,918.831,VALID,0,VALID,97.6096,VALID,0,VALID,19.4835,VALID,70,VALID,0.628906,
2001-10-02, 00:22:00,VALID,918.811,VALID,0,VALID,97.705,VALID,0,VALID,19.532,VALID,72,VALID,0.609776,
2001-10-02, 00:23:00,VALID,918.795,VALID,0,VALID,97.5689,VALID,0,VALID,19.5546,VALID,73,VALID,0.639803,
2001-10-02, 00:24:00,VALID,918.786,VALID,0,VALID,97.4354,VALID,-0.0169808,VALID,19.5514,VALID,76,VALID,0.529688,
2001-10-02, 00:25:00,VALID,918.771,VALID,0,VALID,97.2371,VALID,0,VALID,19.5613,VALID,80,VALID,0.466992,
2001-10-02, 00:26:00,VALID,918.753,VALID,0,VALID,97.0133,VALID,0,VALID,19.577,VALID,80,VALID,0.331931,
2001-10-02, 00:27:00,VALID,918.76,VALID,0,VALID,96.8454,VALID,0,VALID,19.6001,VALID,81,VALID,0.49116,
2001-10-02, 00:28:00,VALID,918.755,VALID,0,VALID,96.7373,VALID,0.0169808,VALID,19.6319,VALID,89,VALID,0.748828,
2001-10-02, 00:29:00,VALID,918.753,VALID,0,VALID,96.483,VALID,0,VALID,19.6321,VALID,90,VALID,0.739062,
2001-10-02, 00:30:00,VALID,918.743,VALID,0,VALID,96.2923,VALID,0,VALID,19.6157,VALID,88,VALID,0.775841,
2001-10-02, 00:31:00,VALID,918.731,VALID,0,VALID,96.1918,VALID,0.0169808,VALID,19.5899,VALID,77,VALID,0.674753,
2001-10-02, 00:32:00,VALID,918.717,VALID,0,VALID,96.188,VALID,0,VALID,19.5772,VALID,72,VALID,0.713867,
2001-10-02, 00:33:00,VALID,918.7,VALID,0,VALID,96.1397,VALID,0.0169808,VALID,19.5606,VALID,61,VALID,0.601758,
2001-10-02, 00:34:00,VALID,918.669,VALID,0,VALID,95.9896,VALID,0,VALID,19.5447,VALID,59,VALID,0.551883,
2001-10-02, 00:35:00,VALID,918.645,VALID,0,VALID,95.9006,VALID,0,VALID,19.5255,VALID,59,VALID,0.420641,
2001-10-02, 00:36:00,VALID,918.625,VALID,0,VALID,95.8154,VALID,0,VALID,19.4997,VALID,53,VALID,0.34043,
2001-10-02, 00:37:00,VALID,918.622,VALID,0,VALID,95.7467,VALID,0,VALID,19.4478,VALID,53,VALID,0.440625,
2001-10-02, 00:38:00,VALID,918.621,VALID,0,VALID,95.7162,VALID,-0.0169808,VALID,19.4025,VALID,53,VALID,0.482572,
2001-10-02, 00:39:00,VALID,918.615,VALID,0,VALID,95.7404,VALID,0,VALID,19.3305,VALID,53,VALID,0.525905,
2001-10-02, 00:40:00,VALID,918.612,VALID,0,VALID,95.9337,VALID,0,VALID,19.3188,VALID,53,VALID,0.522656,
2001-10-02, 00:41:00,VALID,918.615,VALID,0,VALID,96.324,VALID,0,VALID,19.3124,VALID,53,VALID,0.534766,
2001-10-02, 00:42:00,VALID,918.621,VALID,0,VALID,96.4881,VALID,0.0169808,VALID,19.3384,VALID,52,VALID,0.354567,
2001-10-02, 00:43:00,VALID,918.638,VALID,0,VALID,96.4665,VALID,0,VALID,19.3481,VALID,52,VALID,0.0606497,
2001-10-02, 00:44:00,VALID,918.632,VALID,0,VALID,96.4232,VALID,0.0169808,VALID,19.3409,VALID,52,VALID,0,
2001-10-02, 00:45:00,VALID,918.622,VALID,0,VALID,96.427,VALID,0,VALID,19.3444,VALID,52,VALID,0,
2001-10-02, 00:46:00,VALID,918.617,VALID,0,VALID,96.4525,VALID,0,VALID,19.3506,VALID,52,VALID,0,
2001-10-02, 00:47:00,VALID,918.598,VALID,0,VALID,96.4715,VALID,0.0169808,VALID,19.3573,VALID,52,VALID,0,
2001-10-02, 00:48:00,VALID,918.583,VALID,0,VALID,96.4181,VALID,0,VALID,19.367,VALID,52,VALID,0,
2001-10-02, 00:49:00,VALID,918.557,VALID,0,VALID,96.3317,VALID,0,VALID,19.3901,VALID,52,VALID,0,
2001-10-02, 00:50:00,VALID,918.535,VALID,0,VALID,96.2249,VALID,0,VALID,19.409,VALID,52,VALID,0,
2001-10-02, 00:51:00,VALID,918.523,VALID,0,VALID,96.1587,VALID,-0.0169808,VALID,19.4351,VALID,52,VALID,0,
2001-10-02, 00:52:00,VALID,918.517,VALID,0,VALID,96.0888,VALID,0,VALID,19.448,VALID,52,VALID,0,
2001-10-02, 00:53:00,VALID,918.509,VALID,0,VALID,95.9998,VALID,0.0169808,VALID,19.4577,VALID,40,VALID,0.221875,
2001-10-02, 00:54:00,VALID,918.504,VALID,0,VALID,95.9769,VALID,0.0169808,VALID,19.4736,VALID,26,VALID,0.0639022,
2001-10-02, 00:55:00,VALID,918.494,VALID,0,VALID,95.9044,VALID,0,VALID,19.5027,VALID,26,VALID,0,
2001-10-02, 00:56:00,VALID,918.506,VALID,0,VALID,95.7353,VALID,0.0339617,VALID,19.5057,VALID,26,VALID,0,
2001-10-02, 00:57:00,VALID,918.5,VALID,0,VALID,95.6933,VALID,0,VALID,19.5221,VALID,26,VALID,0.0513672,
2001-10-02, 00:58:00,VALID,918.494,VALID,0,VALID,95.6654,VALID,0,VALID,19.5412,VALID,45,VALID,0.202123,
2001-10-02, 00:59:00,VALID,918.484,VALID,0,VALID,95.4492,VALID,0.0169808,VALID,19.5608,VALID,43,VALID,0.122122,
2001-10-02, 01:00:00,VALID,918.469,VALID,0,VALID,95.4059,VALID,0.0509425,VALID,19.5665,VALID,12,VALID,0.170703,
2001-10-02, 01:01:00,VALID,918.452,VALID,0,VALID,95.3284,VALID,0.0169808,VALID,19.619,VALID,348,VALID,0.233008,
2001-10-02, 01:02:00,VALID,918.442,VALID,0,VALID,95.1949,VALID,0,VALID,19.6443,VALID,34,VALID,0.436098,
2001-10-02, 01:03:00,VALID,918.415,VALID,0,VALID,94.9444,VALID,0,VALID,19.6774,VALID,39,VALID,0.431127,
2001-10-02, 01:04:00,VALID,918.407,VALID,0,VALID,94.7676,VALID,0,VALID,19.6838,VALID,36,VALID,0.426758,
2001-10-02, 01:05:00,VALID,918.384,VALID,0,VALID,94.6417,VALID,0,VALID,19.6965,VALID,37,VALID,0.274414,
2001-10-02, 01:06:00,VALID,918.375,VALID,0,VALID,94.4103,VALID,0,VALID,19.6997,VALID,55,VALID,0.263021,
2001-10-02, 01:07:00,VALID,918.357,VALID,0,VALID,94.2933,VALID,0,VALID,19.6997,VALID,62,VALID,0.0289885,
2001-10-02, 01:08:00,VALID,918.34,VALID,0,VALID,94.2602,VALID,0,VALID,19.7032,VALID,62,VALID,0,
2001-10-02, 01:09:00,VALID,918.327,VALID,0,VALID,94.3454,VALID,0,VALID,19.6997,VALID,82,VALID,0.05625,
2001-10-02, 01:10:00,VALID,918.321,VALID,0,VALID,94.4446,VALID,0,VALID,19.6967,VALID,83,VALID,0,
2001-10-02, 01:11:00,VALID,918.31,VALID,0,VALID,94.5705,VALID,0,VALID,19.6831,VALID,83,VALID,0,
2001-10-02, 01:12:00,VALID,918.294,VALID,0,VALID,94.6786,VALID,0,VALID,19.6938,VALID,83,VALID,0,
2001-10-02, 01:13:00,VALID,918.28,VALID,0,VALID,94.7358,VALID,0,VALID,19.6833,VALID,60,VALID,0,
2001-10-02, 01:14:00,VALID,918.255,VALID,0,VALID,94.7956,VALID,0,VALID,19.6769,VALID,51,VALID,0.057492,
2001-10-02, 01:15:00,VALID,918.219,VALID,0,VALID,94.8007,VALID,0,VALID,19.6739,VALID,44,VALID,0.0797697,
2001-10-02, 01:16:00,VALID,918.194,VALID,0,VALID,94.7981,VALID,-0.0169808,VALID,19.6575,VALID,44,VALID,0,
2001-10-02, 01:17:00,VALID,918.152,VALID,0,VALID,94.7434,VALID,0,VALID,19.6642,VALID,44,VALID,0,
2001-10-02, 01:18:00,VALID,918.119,VALID,0,VALID,94.6112,VALID,0,VALID,19.6545,VALID,44,VALID,0,
2001-10-02, 01:19:00,VALID,918.081,VALID,0,VALID,94.4929,VALID,0.0169808,VALID,19.6413,VALID,44,VALID,0,
2001-10-02, 01:20:00,VALID,918.064,VALID,0,VALID,94.4891,VALID,0,VALID,19.6349,VALID,44,VALID,0,
2001-10-02, 01:21:00,VALID,918.041,VALID,0,VALID,94.4446,VALID,0,VALID,19.6282,VALID,44,VALID,0,
2001-10-02, 01:22:00,VALID,918.044,VALID,0,VALID,94.3556,VALID,0,VALID,19.6321,VALID,44,VALID,0,
2001-10-02, 01:23:00,VALID,918.041,VALID,0,VALID,94.2526,VALID,0,VALID,19.6155,VALID,44,VALID,0,
2001-10-02, 01:24:00,VALID,918.041,VALID,0,VALID,94.2564,VALID,0,VALID,19.6222,VALID,44,VALID,0,
2001-10-02, 01:25:00,VALID,918.018,VALID,0,VALID,94.231,VALID,0,VALID,19.6252,VALID,44,VALID,0,
2001-10-02, 01:26:00,VALID,918.018,VALID,0,VALID,94.1801,VALID,-0.0169808,VALID,19.6254,VALID,43,VALID,0.141026,
2001-10-02, 01:27:00,VALID,917.995,VALID,0,VALID,94.0301,VALID,0.0169808,VALID,19.6128,VALID,43,VALID,0.197985,
2001-10-02, 01:28:00,VALID,917.965,VALID,0,VALID,94.0759,VALID,-0.0169808,VALID,19.5733,VALID,44,VALID,0.413672,
2001-10-02, 01:29:00,VALID,917.945,VALID,0,VALID,94.3162,VALID,0,VALID,19.5447,VALID,48,VALID,0.355664,
2001-10-02, 01:30:00,VALID,917.941,VALID,0,VALID,94.3938,VALID,0,VALID,19.5124,VALID,48,VALID,0.495393,
2001-10-02, 01:31:00,VALID,917.913,VALID,0,VALID,94.5959,VALID,0,VALID,19.4801,VALID,48,VALID,0.657072,
2001-10-02, 01:32:00,VALID,917.901,VALID,0,VALID,94.8197,VALID,0.0169808,VALID,19.448,VALID,48,VALID,0.524023,
2001-10-02, 01:33:00,VALID,917.893,VALID,0,VALID,95.1135,VALID,0,VALID,19.373,VALID,48,VALID,0.281641,
2001-10-02, 01:34:00,VALID,917.875,VALID,0,VALID,95.1885,VALID,0,VALID,19.3474,VALID,48,VALID,0.104167,
2001-10-02, 01:35:00,VALID,917.862,VALID,0,VALID,95.3691,VALID,0,VALID,19.3086,VALID,48,VALID,0,
2001-10-02, 01:36:00,VALID,917.849,VALID,0,VALID,95.5852,VALID,0,VALID,19.2888,VALID,48,VALID,0,
2001-10-02, 01:37:00,VALID,917.821,VALID,0,VALID,95.7251,VALID,0.0169808,VALID,19.2763,VALID,48,VALID,0,
2001-10-02, 01:38:00,VALID,917.79,VALID,0,VALID,95.7912,VALID,0.0169808,VALID,19.2704,VALID,48,VALID,0.202123,
2001-10-02, 01:39:00,VALID,917.772,VALID,0,VALID,95.8027,VALID,-0.0169808,VALID,19.2674,VALID,48,VALID,0.628084,
2001-10-02, 01:40:00,VALID,917.758,VALID,0,VALID,95.7544,VALID,0,VALID,19.2637,VALID,48,VALID,0.689062,
2001-10-02, 01:41:00,VALID,917.749,VALID,0,VALID,95.7989,VALID,0,VALID,19.2699,VALID,48,VALID,0.332617,
2001-10-02, 01:42:00,VALID,917.744,VALID,0,VALID,95.7595,VALID,0,VALID,19.2863,VALID,48,VALID,0.212941,
2001-10-02, 01:43:00,VALID,917.745,VALID,0,VALID,95.6234,VALID,0,VALID,19.3086,VALID,48,VALID,0.0219984,
2001-10-02, 01:44:00,VALID,917.725,VALID,0,VALID,95.5102,VALID,0,VALID,19.3255,VALID,48,VALID,0,
2001-10-02, 01:45:00,VALID,917.712,VALID,0,VALID,95.4314,VALID,0,VALID,19.3312,VALID,48,VALID,0,
2001-10-02, 01:46:00,VALID,917.687,VALID,0,VALID,95.3843,VALID,0,VALID,19.3317,VALID,48,VALID,0,
2001-10-02, 01:47:00,VALID,917.672,VALID,0,VALID,95.4899,VALID,0,VALID,19.3479,VALID,48,VALID,0,
2001-10-02, 01:48:00,VALID,917.657,VALID,0,VALID,95.5484,VALID,0,VALID,19.3603,VALID,48,VALID,0,
2001-10-02, 01:49:00,VALID,917.649,VALID,0,VALID,95.5687,VALID,0,VALID,19.377,VALID,48,VALID,0,
2001-10-02, 01:50:00,VALID,917.628,VALID,0,VALID,95.4543,VALID,0,VALID,19.4028,VALID,48,VALID,0,
2001-10-02, 01:51:00,VALID,917.615,VALID,0,VALID,95.2381,VALID,0,VALID,19.3933,VALID,48,VALID,0,
2001-10-02, 01:52:00,VALID,917.609,VALID,0,VALID,95.0372,VALID,0,VALID,19.3702,VALID,48,VALID,0,
2001-10-02, 01:53:00,VALID,917.6,VALID,0,VALID,94.8236,VALID,0,VALID,19.3253,VALID,48,VALID,0,
2001-10-02, 01:54:00,VALID,917.588,VALID,0,VALID,94.8236,VALID,0.0339617,VALID,19.2902,VALID,48,VALID,0,
2001-10-02, 01:55:00,VALID,917.575,VALID,0,VALID,95.1326,VALID,0,VALID,19.2641,VALID,52,VALID,0,
2001-10-02, 01:56:00,VALID,917.558,VALID,0,VALID,95.4136,VALID,0,VALID,19.2641,VALID,55,VALID,0,
2001-10-02, 01:57:00,VALID,917.53,VALID,0,VALID,95.4199,VALID,0,VALID,19.2547,VALID,55,VALID,0,
2001-10-02, 01:58:00,VALID,917.519,VALID,0,VALID,95.4517,VALID,0,VALID,19.2383,VALID,55,VALID,0,
2001-10-02, 01:59:00,VALID,917.486,VALID,0,VALID,95.4899,VALID,-0.0169808,VALID,19.2152,VALID,55,VALID,0,
2001-10-02, 02:00:00,VALID,917.462,VALID,0,VALID,95.5191,VALID,-0.0339617,VALID,19.2129,VALID,55,VALID,0,
2001-10-02, 02:01:00,VALID,917.45,VALID,0,VALID,95.5814,VALID,0,VALID,19.1928,VALID,55,VALID,0,
2001-10-02, 02:02:00,VALID,917.435,VALID,0,VALID,95.6323,VALID,0,VALID,19.1834,VALID,55,VALID,0,
2001-10-02, 02:03:00,VALID,917.418,VALID,0,VALID,95.7188,VALID,0.0169808,VALID,19.1866,VALID,55,VALID,0,
2001-10-02, 02:04:00,VALID,917.406,VALID,0,VALID,95.7862,VALID,0,VALID,19.1705,VALID,55,VALID,0,
2001-10-02, 02:05:00,VALID,917.368,VALID,0,VALID,95.7645,VALID,0,VALID,19.17,VALID,55,VALID,0,
2001-10-02, 02:06:00,VALID,917.363,VALID,0,VALID,95.645,VALID,-0.0169808,VALID,19.1643,VALID,55,VALID,0,
2001-10-02, 02:07:00,VALID,917.354,VALID,0,VALID,95.6666,VALID,0,VALID,19.1516,VALID,55,VALID,0,
2001-10-02, 02:08:00,VALID,917.33,VALID,0,VALID,95.6221,VALID,-0.0169808,VALID,19.125,VALID,55,VALID,0,
2001-10-02, 02:09:00,VALID,917.325,VALID,0,VALID,95.6679,VALID,0,VALID,19.1059,VALID,55,VALID,0,
2001-10-02, 02:10:00,VALID,917.32,VALID,0,VALID,95.7264,VALID,-0.0339617,VALID,19.1066,VALID,25,VALID,0,
2001-10-02, 02:11:00,VALID,917.304,VALID,0,VALID,95.7289,VALID,-0.0169808,VALID,19.0699,VALID,336,VALID,0.0676398,
2001-10-02, 02:12:00,VALID,917.3,VALID,0,VALID,95.4136,VALID,-0.0169808,VALID,19.0117,VALID,19,VALID,0.141992,
2001-10-02, 02:13:00,VALID,917.289,VALID,0,VALID,95.5433,VALID,0,VALID,18.9799,VALID,19,VALID,0.104492,
2001-10-02, 02:14:00,VALID,917.279,VALID,0,VALID,95.8205,VALID,-0.0169808,VALID,18.9476,VALID,19,VALID,0.0216346,
2001-10-02, 02:15:00,VALID,917.289,VALID,0,VALID,96.0303,VALID,-0.0169808,VALID,18.9546,VALID,19,VALID,0,
2001-10-02, 02:16:00,VALID,917.261,VALID,0,VALID,96.1893,VALID,-0.0169808,VALID,18.9538,VALID,19,VALID,0,
2001-10-02, 02:17:00,VALID,917.258,VALID,0,VALID,96.3965,VALID,0,VALID,18.9504,VALID,19,VALID,0,
2001-10-02, 02:18:00,VALID,917.241,VALID,0,VALID,96.6801,VALID,-0.0169808,VALID,18.9933,VALID,19,VALID,0,
2001-10-02, 02:19:00,VALID,917.223,VALID,0,VALID,96.8098,VALID,0,VALID,19.0254,VALID,20,VALID,0.0686678,
2001-10-02, 02:20:00,VALID,917.21,VALID,0,VALID,96.7208,VALID,-0.0339617,VALID,19.0572,VALID,22,VALID,0.182812,
2001-10-02, 02:21:00,VALID,917.205,VALID,0,VALID,96.5618,VALID,0,VALID,19.0865,VALID,46,VALID,0.266406,
2001-10-02, 02:22:00,VALID,917.202,VALID,0,VALID,96.3101,VALID,0,VALID,19.0867,VALID,60,VALID,0.159455,
2001-10-02, 02:23:00,VALID,917.187,VALID,0,VALID,96.3622,VALID,-0.0169808,VALID,19.0863,VALID,47,VALID,0,
2001-10-02, 02:24:00,VALID,917.195,VALID,0,VALID,96.366,VALID,-0.0169808,VALID,19.1158,VALID,26,VALID,0.0701172,
2001-10-02, 02:25:00,VALID,917.179,VALID,0,VALID,96.497,VALID,-0.0169808,VALID,19.1285,VALID,9,VALID,0.303711,
2001-10-02, 02:26:00,VALID,917.164,VALID,0,VALID,96.4258,VALID,-0.0169808,VALID,19.1511,VALID,14,VALID,0.107572,
2001-10-02, 02:27:00,VALID,917.167,VALID,0,VALID,96.1435,VALID,0,VALID,19.1416,VALID,31,VALID,0.277961,
2001-10-02, 02:28:00,VALID,917.168,VALID,0,VALID,96.2783,VALID,0,VALID,19.1317,VALID,33,VALID,0.236719,
2001-10-02, 02:29:00,VALID,917.17,VALID,0,VALID,96.4067,VALID,0,VALID,19.1479,VALID,34,VALID,0.265234,
2001-10-02, 02:30:00,VALID,917.177,VALID,0,VALID,96.4347,VALID,0,VALID,19.1675,VALID,54,VALID,0.0715144,
2001-10-02, 02:31:00,VALID,917.169,VALID,0,VALID,96.4385,VALID,-0.0169808,VALID,19.171,VALID,85,VALID,0.222245,
2001-10-02, 02:32:00,VALID,917.165,VALID,0,VALID,96.4042,VALID,-0.0169808,VALID,19.1802,VALID,91,VALID,0.490234,
2001-10-02, 02:33:00,VALID,917.154,VALID,0,VALID,96.1905,VALID,0,VALID,19.1869,VALID,102,VALID,0.547266,
2001-10-02, 02:34:00,VALID,917.148,VALID,0,VALID,96.0443,VALID,-0.0169808,VALID,19.1608,VALID,100,VALID,0.535056,
2001-10-02, 02:35:00,VALID,917.15,VALID,0,VALID,96.0125,VALID,0,VALID,19.1479,VALID,106,VALID,0.707648,
2001-10-02, 02:36:00,VALID,917.129,VALID,0,VALID,96.3304,VALID,0,VALID,19.1444,VALID,101,VALID,0.763086,
2001-10-02, 02:37:00,VALID,917.121,VALID,0,VALID,96.3596,VALID,0,VALID,19.1705,VALID,108,VALID,0.685352,
2001-10-02, 02:38:00,VALID,917.116,VALID,0,VALID,96.4639,VALID,-0.0339617,VALID,19.1809,VALID,125,VALID,0.59996,
2001-10-02, 02:39:00,VALID,917.114,VALID,0,VALID,96.5669,VALID,-0.0339617,VALID,19.1836,VALID,125,VALID,0.486431,
2001-10-02, 02:40:00,VALID,917.112,VALID,0,VALID,96.6102,VALID,0,VALID,19.1804,VALID,122,VALID,0.438867,
2001-10-02, 02:41:00,VALID,917.112,VALID,0,VALID,96.6,VALID,-0.0169808,VALID,19.1966,VALID,145,VALID,0.507813,
2001-10-02, 02:42:00,VALID,917.108,VALID,0,VALID,96.5644,VALID,0,VALID,19.1834,VALID,157,VALID,0.675481,
2001-10-02, 02:43:00,VALID,917.118,VALID,0,VALID,96.6369,VALID,-0.0169808,VALID,19.1772,VALID,149,VALID,0.585732,
2001-10-02, 02:44:00,VALID,917.117,VALID,0,VALID,96.6241,VALID,-0.0169808,VALID,19.1479,VALID,149,VALID,0.669336,
2001-10-02, 02:45:00,VALID,917.103,VALID,0,VALID,96.6928,VALID,-0.0169808,VALID,19.1156,VALID,135,VALID,0.612695,
2001-10-02, 02:46:00,VALID,917.107,VALID,0,VALID,96.82,VALID,0,VALID,19.0796,VALID,134,VALID,0.177083,
2001-10-02, 02:47:00,VALID,917.099,VALID,0,VALID,96.5199,VALID,-0.101885,VALID,19.0169,VALID,122,VALID,0.0119243,
2001-10-02, 02:48:00,VALID,917.102,VALID,0,VALID,96.4728,VALID,-0.101885,VALID,18.9301,VALID,117,VALID,0,
2001-10-02, 02:49:00,VALID,917.107,VALID,0,VALID,96.6102,VALID,-0.118866,VALID,18.8748,VALID,105,VALID,0,
2001-10-02, 02:50:00,VALID,917.12,VALID,0,VALID,96.8886,VALID,-0.101885,VALID,18.8653,VALID,105,VALID,0,
2001-10-02, 02:51:00,VALID,917.132,VALID,0,VALID,97.1442,VALID,-0.101885,VALID,18.8782,VALID,100,VALID,0,
2001-10-02, 02:52:00,VALID,917.127,VALID,0,VALID,97.0476,VALID,-0.118866,VALID,18.8591,VALID,57,VALID,0.429688,
2001-10-02, 02:53:00,VALID,917.124,VALID,0,VALID,97.1353,VALID,-0.135847,VALID,18.8203,VALID,50,VALID,0.818555,
2001-10-02, 02:54:00,VALID,917.118,VALID,0,VALID,97.4431,VALID,-0.135847,VALID,18.8437,VALID,55,VALID,1.02344,
2001-10-02, 02:55:00,VALID,917.112,VALID,0,VALID,97.4952,VALID,-0.101885,VALID,18.8432,VALID,22,VALID,0.63199,
2001-10-02, 02:56:00,VALID,917.122,VALID,0,VALID,97.3362,VALID,-0.118866,VALID,18.7843,VALID,351,VALID,0.115234,
2001-10-02, 02:57:00,VALID,917.134,VALID,0,VALID,97.5689,VALID,-0.101885,VALID,18.8173,VALID,275,VALID,0.394531,
2001-10-02, 02:58:00,VALID,917.137,VALID,0,VALID,97.7775,VALID,-0.101885,VALID,18.9013,VALID,240,VALID,0.0875401,
2001-10-02, 02:59:00,VALID,917.125,VALID,0,VALID,97.7292,VALID,-0.135847,VALID,18.9565,VALID,296,VALID,0.292558,
2001-10-02, 03:00:00,VALID,917.106,VALID,0,VALID,97.4888,VALID,-0.118866,VALID,18.989,VALID,42,VALID,0.187109,
2001-10-02, 03:01:00,VALID,917.113,VALID,0,VALID,97.2981,VALID,-0.118866,VALID,18.9977,VALID,42,VALID,0,
2001-10-02, 03:02:00,VALID,917.107,VALID,0,VALID,97.1252,VALID,-0.0169808,VALID,19.0194,VALID,42,VALID,0,
2001-10-02, 03:03:00,VALID,917.1,VALID,0,VALID,96.9649,VALID,-0.0679233,VALID,19.0358,VALID,42,VALID,0,
2001-10-02, 03:04:00,VALID,917.105,VALID,0,VALID,96.8454,VALID,-0.0509425,VALID,19.0582,VALID,42,VALID,0,
2001-10-02, 03:05:00,VALID,917.103,VALID,0,VALID,96.6394,VALID,-0.0339617,VALID,19.0582,VALID,90,VALID,0.196875,
2001-10-02, 03:06:00,VALID,917.112,VALID,0,VALID,96.4385,VALID,-0.0339617,VALID,19.0552,VALID,138,VALID,0.31871,
2001-10-02, 03:07:00,VALID,917.119,VALID,0,VALID,96.4258,VALID,-0.0509425,VALID,19.0489,VALID,139,VALID,0.32463,
2001-10-02, 03:08:00,VALID,917.141,VALID,0,VALID,96.5033,VALID,-0.0509425,VALID,19.0522,VALID,139,VALID,0.192773,
2001-10-02, 03:09:00,VALID,917.138,VALID,0,VALID,96.5657,VALID,-0.0339617,VALID,19.0552,VALID,139,VALID,0,
2001-10-02, 03:10:00,VALID,917.141,VALID,0,VALID,96.6572,VALID,-0.0509425,VALID,19.0579,VALID,139,VALID,0,
2001-10-02, 03:11:00,VALID,917.139,VALID,0,VALID,96.7017,VALID,-0.0849042,VALID,19.0619,VALID,139,VALID,0,
2001-10-02, 03:12:00,VALID,917.14,VALID,0,VALID,96.6229,VALID,-0.0339617,VALID,19.0485,VALID,139,VALID,0,
2001-10-02, 03:13:00,VALID,917.138,VALID,0,VALID,96.647,VALID,-0.0169808,VALID,19.0422,VALID,139,VALID,0,
2001-10-02, 03:14:00,VALID,917.136,VALID,0,VALID,96.7577,VALID,-0.0339617,VALID,19.042,VALID,139,VALID,0,
2001-10-02, 03:15:00,VALID,917.111,VALID,0,VALID,96.7233,VALID,-0.0339617,VALID,19.0351,VALID,139,VALID,0,
2001-10-02, 03:16:00,VALID,917.102,VALID,0,VALID,96.75,VALID,-0.0169808,VALID,19.0388,VALID,139,VALID,0,
2001-10-02, 03:17:00,VALID,917.096,VALID,0,VALID,96.7488,VALID,-0.0509425,VALID,19.0231,VALID,139,VALID,0,
2001-10-02, 03:18:00,VALID,917.099,VALID,0,VALID,96.9014,VALID,-0.0509425,VALID,19.0164,VALID,139,VALID,0,
2001-10-02, 03:19:00,VALID,917.085,VALID,0,VALID,97.0196,VALID,-0.0169808,VALID,19.0261,VALID,117,VALID,0,
2001-10-02, 03:20:00,VALID,917.071,VALID,0,VALID,96.9001,VALID,-0.0169808,VALID,19.0196,VALID,86,VALID,0,
2001-10-02, 03:21:00,VALID,917.072,VALID,0,VALID,96.9306,VALID,0,VALID,19.0164,VALID,24,VALID,0,
2001-10-02, 03:22:00,VALID,917.073,VALID,0,VALID,96.9624,VALID,-0.0509425,VALID,19.0194,VALID,24,VALID,0,
2001-10-02, 03:23:00,VALID,917.057,VALID,0,VALID,96.9865,VALID,-0.0169808,VALID,19.0221,VALID,24,VALID,0,
2001-10-02, 03:24:00,VALID,917.053,VALID,0,VALID,96.984,VALID,0,VALID,19.0485,VALID,24,VALID,0,
2001-10-02, 03:25:00,VALID,917.043,VALID,0,VALID,96.8963,VALID,0,VALID,19.045,VALID,71,VALID,0.0615234,
2001-10-02, 03:26:00,VALID,917.028,VALID,0,VALID,96.7984,VALID,0,VALID,19.0711,VALID,160,VALID,0.682893,
2001-10-02, 03:27:00,VALID,917.025,VALID,0,VALID,96.7831,VALID,-0.0169808,VALID,19.0713,VALID,175,VALID,0.608553,
2001-10-02, 03:28:00,VALID,917.022,VALID,0,VALID,96.7322,VALID,0,VALID,19.081,VALID,180,VALID,0.263672,
2001-10-02, 03:29:00,VALID,917.019,VALID,0,VALID,96.6178,VALID,-0.0339617,VALID,19.0969,VALID,180,VALID,0,
2001-10-02, 03:30:00,VALID,917.014,VALID,0,VALID,96.4944,VALID,-0.0169808,VALID,19.1553,VALID,128,VALID,0.253806,
2001-10-02, 03:31:00,VALID,917.015,VALID,0,VALID,96.0227,VALID,-0.0339617,VALID,19.1742,VALID,9,VALID,0.368832,
2001-10-02, 03:32:00,VALID,917.015,VALID,0,VALID,95.4988,VALID,-0.0169808,VALID,19.158,VALID,30,VALID,0.400977,
2001-10-02, 03:33:00,VALID,916.998,VALID,0,VALID,95.3767,VALID,0,VALID,19.1419,VALID,34,VALID,0.273633,
2001-10-02, 03:34:00,VALID,916.977,VALID,0,VALID,95.4034,VALID,0.0169808,VALID,19.1255,VALID,34,VALID,0.144832,
2001-10-02, 03:35:00,VALID,916.97,VALID,0,VALID,95.6603,VALID,-0.0169808,VALID,19.1451,VALID,34,VALID,0.00246711,
2001-10-02, 03:36:00,VALID,916.97,VALID,0,VALID,95.6158,VALID,-0.0169808,VALID,19.1546,VALID,34,VALID,0,
2001-10-02, 03:37:00,VALID,916.974,VALID,0,VALID,95.4517,VALID,-0.0169808,VALID,19.1615,VALID,34,VALID,0,
2001-10-02, 03:38:00,VALID,916.962,VALID,0,VALID,95.4517,VALID,0,VALID,19.1486,VALID,17,VALID,0.0332532,
2001-10-02, 03:39:00,VALID,916.96,VALID,0,VALID,95.5064,VALID,-0.0169808,VALID,19.1548,VALID,303,VALID,0.196135,
2001-10-02, 03:40:00,VALID,916.961,VALID,0,VALID,95.5115,VALID,-0.0169808,VALID,19.2033,VALID,301,VALID,0.0833984,
2001-10-02, 03:41:00,VALID,916.942,VALID,0,VALID,95.3106,VALID,0,VALID,19.2323,VALID,356,VALID,0.229297,
2001-10-02, 03:42:00,VALID,916.921,VALID,0,VALID,95.0791,VALID,-0.0339617,VALID,19.2162,VALID,26,VALID,0,
2001-10-02, 03:43:00,VALID,916.905,VALID,0,VALID,94.9698,VALID,-0.0509425,VALID,19.2231,VALID,26,VALID,0,